BREEZE-M R/B, 40883

Orbit data source: Space-Track

BREEZE-M R/B, 40883 is space debris in HEO originally from a launch on Fri, 28 Aug 2015 UTC launched from the Tyuratam Missile And Space Complex (TTMTR). Debris objects in space refer to the collection of defunct objects orbiting the Earth. Examples of debris include non-operational satellites, rocket bodies, and fragments generated from explosions, collisions, or faulty payload assembly.

Loading next visibility...
Identifier
40883, 2015-042B
Orbit
HEO
Country
Flag of CISCIS
Related business
Manufacturer
Khrunichev
Mission
Spacecraft
Bus & Motor
BRIZ, Unknown motor
Mass
~1,600 kg wet, 1,600 kg dry
Launch date (UTC)
2015-08-28 (11 years ago)
Launch vehicle
Unknown
Launch site
Tyuratam Missile And Space Complex (TTMTR)
Object type
Payload
Rocket body
Debris
Shape & HBR
Cyl, 2.0 m
Radar Cross Section
15.135 m², Large (>1 m²)

Expand to show TLE details & history
Last TLE update: 4 days ago

TLE from 4 days ago
0 BREEZE-M R/B
1 40883U 15042B   26169.02926559 -.00000185  00000-0  00000+0 0  9991
2 40883  28.6190  73.0097 7944860 163.0899 260.6827  1.10225634 43519
Epoch: 2026-06-18T00:42Z
TLE epoch observation values (Epoch: 2026-06-18T00:42:08.546Z)
Latitude
0.00013°
Longitude
156.11789°
Altitude
54,653.887 km
Speed
1.73 km/s
True Right ascension
04h 51m 43s
True Declination
0° 00' 00"
Sunlit
Object was in daylight at epoch
Visualization orbit readout
Latitude
Unknown
Longitude
Unknown
Altitude
Unknown
Speed
Unknown
Apparent Right ascension
Unknown
Apparent Declination
Unknown
Sunlit
N/A
Visualization observer readout
Local Sidereal Time
21:36:04
Azimuth
Unknown
Elevation
Unknown
Doppler factor
Unknown
Orbital elements
Apogee altitude
64,665.119 km
Perigee altitude
1,758.111 km
Semi-major axis
39,589.752 km
Eccentricity
0.79449
Inclination
28.619°
RAAN
73.0097°
Arg. of periapsis
163.0899°
True anomaly
196.84175°
Mean anomaly
260.6827°
Eccentric anomaly
227.25379°
Mean motion
0.27553 °/min
Orbital period
1,306.57 mins
BSTAR
0
Loading maneuver chart data...
Computing Atmospheric mass density...
Loading historical data...
Loading historical data...
Loading historical data...
Loading historical data...
Loading historical data...
Loading historical data...
Loading historical data...
Other satellites on launch #42 in the year 2015 (2015-08-28 UTC)

Documentation

Showing up to 5 results
|